STARLINK-34243 (64361 NORAD) Tracking and Keplerian Element Data

This shows tracking and keplerian element data for the satellite.

Feedback or suggestion? Click here.




ElementValue
Catalog64361
NameSTARLINK-34243
Epoch Orbit2876
Epoch Day354.12891351
Epoch Year2025
RAAN235.0856
Inclination69.9993
Eccentricity0.0002385
Argument of Perigee269.3625
Mean Anonmoly90.7261
Mean Motion14.98331997
Decay Rate4.588E-05
L11 64361U 25126T 25354.12891351 .00004588 00000+0 39201-3 0 9997
L22 64361 69.9993 235.0856 0002385 269.3625 90.7261 14.98331997 28769



Live tracking and technical data element details for STARLINK-34243 (NORAD 64361). STARLINK-34243 can be tracked NOW for your location showing map with azimuth and elevation plus other details from your city location.







IsCatalogInMostPopularTable: catalog: 64361, numindb: 4
Update: records affected: 1



GetName: 64361 STARLINK-34243

Hit Count: updated at: Mon, 09 Feb 2026 08:58:38 GMT